TimePST,TemperatureF,Dew PointF,Humidity,Sea Level PressureIn,VisibilityMPH,Wind Direction,Wind SpeedMPH,Gust SpeedMPH,PrecipitationIn,Events,Conditions,WindDirDegrees,DateUTC
12:56 AM,62.1,45.0,53,30.13,10.0,Calm,Calm,-,N/A,,Partly Cloudy,0,2013-02-03 08:56:00
1:55 AM,-9999,-9999,N/A,-9999,-9999.0,North,-9999.0,-,N/A,,Unknown,0,2013-02-03 09:55:00
1:56 AM,63.0,43.0,48,30.12,10.0,West,5.8,-,N/A,,Overcast,270,2013-02-03 09:56:00
2:56 AM,62.1,46.0,56,30.12,10.0,West,8.1,-,0.00,Rain,Light Rain,260,2013-02-03 10:56:00
3:56 AM,61.0,50.0,67,30.10,10.0,WNW,3.5,-,0.00,Rain,Light Rain,300,2013-02-03 11:56:00
4:56 AM,61.0,50.0,67,30.09,10.0,NNE,4.6,-,0.00,,Overcast,20,2013-02-03 12:56:00
5:56 AM,60.1,52.0,75,30.11,10.0,WSW,3.5,-,0.01,,Overcast,250,2013-02-03 13:56:00
6:56 AM,61.0,53.1,75,30.12,10.0,Calm,Calm,-,N/A,,Overcast,0,2013-02-03 14:56:00
7:56 AM,62.1,54.0,75,30.13,10.0,Calm,Calm,-,N/A,,Overcast,0,2013-02-03 15:56:00
8:56 AM,66.0,46.9,50,30.13,10.0,Calm,Calm,-,N/A,,Overcast,0,2013-02-03 16:56:00
9:56 AM,71.1,46.9,42,30.12,10.0,NNE,3.5,-,N/A,,Mostly Cloudy,30,2013-02-03 17:56:00
10:56 AM,73.0,44.1,35,30.10,10.0,North,10.4,-,N/A,,Partly Cloudy,10,2013-02-03 18:56:00
11:56 AM,75.0,43.0,32,30.06,10.0,North,4.6,-,N/A,,Clear,10,2013-02-03 19:56:00
12:56 PM,75.9,39.9,27,30.03,10.0,NW,8.1,-,N/A,,Clear,320,2013-02-03 20:56:00
1:56 PM,78.1,39.0,25,30.02,10.0,North,10.4,-,N/A,,Clear,360,2013-02-03 21:56:00
2:56 PM,77.0,39.9,26,30.00,10.0,NNW,10.4,-,N/A,,Clear,340,2013-02-03 22:56:00
3:56 PM,75.0,39.0,27,30.01,10.0,North,6.9,-,N/A,,Clear,350,2013-02-03 23:56:00
4:56 PM,73.0,41.0,31,30.01,10.0,NW,3.5,-,N/A,,Clear,310,2013-02-04 00:56:00
5:56 PM,71.1,41.0,34,30.01,10.0,Calm,Calm,-,N/A,,Scattered Clouds,0,2013-02-04 01:56:00
6:56 PM,68.0,42.1,39,30.03,10.0,Calm,Calm,-,N/A,,Mostly Cloudy,0,2013-02-04 02:56:00
7:56 PM,63.0,42.1,46,30.04,10.0,Calm,Calm,-,N/A,,Mostly Cloudy,0,2013-02-04 03:56:00
8:56 PM,62.1,42.1,48,30.05,10.0,Calm,Calm,-,N/A,,Clear,0,2013-02-04 04:56:00
9:56 PM,62.1,43.0,50,30.05,10.0,SSW,4.6,-,N/A,,Clear,200,2013-02-04 05:56:00
10:56 PM,59.0,44.1,58,30.05,10.0,WSW,4.6,-,N/A,,Clear,240,2013-02-04 06:56:00
11:56 PM,55.9,43.0,62,30.04,10.0,West,5.8,-,N/A,,Clear,270,2013-02-04 07:56:00